{"data":{"norad_id":65546,"intl_designator":"2025-199C","name":"YAOGAN-40 03C","alt_names":[],"object_type":"PAYLOAD","status":"ACTIVE","operator":null,"country":"PRC","launch_date":"2025-09-06","launch_site_code":"TAISC","launch_vehicle":null,"mission":null,"orbit_class":"UNKNOWN","rcs_meters":null,"size_class":null,"mass_kg":null,"dimensions":null,"purposes":[],"wikipedia_slug":null,"has_3d_model":false,"image_url":null,"decayed_at":null,"tle_current":{"epoch":"2026-09-20T14:33:05.852736Z","epoch_age_seconds":143409,"freshness":"FRESH","line1":"1 65546U 25199C   26263.60631774  .00000102  00000+0  45198-4 0  9998","line2":"2 65546  85.9968   1.2707 0002114 108.0207 252.1206 14.12463604 53508","mean_motion":14.12463604,"eccentricity":0.0002114,"inclination_deg":85.9968,"raan_deg":1.2707,"arg_perigee_deg":108.0207,"mean_anomaly_deg":252.1206,"bstar":4.5198e-5,"rev_number":5350,"period_min":101.94952959652,"perigee_km":849.42531082876,"apogee_km":852.48177030932,"semimajor_km":7229.090540569,"source":"CELESTRAK","updated_at":"2026-09-21T09:00:15.423672Z"}}}